| time (UTC) | temp F | wind direction | speed MPH | gust MPH | rain 1hr in | rain 24hr in | rain mn in | humidity % | barometer mb |
| 20260831021629 | 73 | 0.0 | 0.0 | 0.00 | 0.00 | 0.00 | 46 | 1015.9 | |
| 20260831020629 | 73 | 0.0 | 0.0 | 0.00 | 0.00 | 0.00 | 47 | 1015.9 | |
| 20260831015629 | 73 | 0.0 | 0.0 | 0.00 | 0.00 | 0.00 | 47 | 1015.9 | |
| 20260831014629 | 72 | 0.0 | 0.0 | 0.00 | 0.00 | 0.00 | 48 | 1015.9 | |
| 20260831013629 | 73 | 0.0 | 0.0 | 0.00 | 0.00 | 0.00 | 46 | 1015.8 | |
| 20260831012629 | 72 | 0.0 | 0.0 | 0.00 | 0.00 | 0.00 | 47 | 1015.8 | |
| 20260831011629 | 72 | 0.0 | 0.0 | 0.00 | 0.00 | 0.00 | 48 | 1015.8 | |
| 20260831010629 | 72 | 0.0 | 0.0 | 0.00 | 0.00 | 0.00 | 47 | 1015.8 | |
| 20260831005629 | 72 | 0.0 | 0.0 | 0.00 | 0.00 | 0.00 | 47 | 1015.9 | |
| 20260831004629 | 72 | 0.0 | 0.0 | 0.00 | 0.00 | 0.00 | 48 | 1015.9 | |
| 20260831003629 | 73 | 0.0 | 0.0 | 0.00 | 0.00 | 0.00 | 46 | 1015.8 | |
| 20260831002629 | 73 | 0.0 | 0.0 | 0.00 | 0.00 | 0.00 | 48 | 1015.9 | |
| 20260831001629 | 73 | 0.0 | 0.0 | 0.00 | 0.00 | 0.00 | 47 | 1015.9 | |
| 20260831000629 | 74 | 0.0 | 0.0 | 0.00 | 0.00 | 0.00 | 43 | 1015.8 | |
| 20260830235629 | 74 | 0.0 | 0.0 | 0.00 | 0.00 | 0.00 | 44 | 1015.8 | |
| 20260830234629 | 74 | 0.0 | 0.0 | 0.00 | 0.00 | 0.00 | 44 | 1015.9 | |
| 20260830233629 | 74 | 0.0 | 0.0 | 0.00 | 0.00 | 0.00 | 45 | 1015.9 | |
| 20260830232629 | 75 | 0.0 | 0.0 | 0.00 | 0.00 | 0.00 | 43 | 1015.7 | |
| 20260830231629 | 75 | 0.0 | 0.0 | 0.00 | 0.00 | 0.00 | 42 | 1015.8 | |
| 20260830230629 | 76 | 0.0 | 0.0 | 0.00 | 0.00 | 0.00 | 42 | 1015.8 | |
| 20260830225629 | 76 | 0.0 | 0.0 | 0.00 | 0.00 | 0.00 | 42 | 1015.8 | |
| 20260830224629 | 75 | 0.0 | 0.0 | 0.00 | 0.00 | 0.00 | 43 | 1015.8 | |
| 20260830223629 | 75 | 0.0 | 0.0 | 0.00 | 0.00 | 0.00 | 45 | 1015.8 | |
| 20260830222629 | 76 | 0.0 | 0.0 | 0.00 | 0.00 | 0.00 | 42 | 1015.5 | |
| 20260830221629 | 76 | 0.0 | 0.0 | 0.00 | 0.00 | 0.00 | 43 | 1015.6 | |
| 20260830220629 | 76 | 0.0 | 0.0 | 0.00 | 0.00 | 0.00 | 41 | 1015.5 | |
| 20260830215629 | 77 | 0.0 | 0.0 | 0.00 | 0.00 | 0.00 | 41 | 1015.3 | |
| 20260830214629 | 76 | 0.0 | 0.0 | 0.00 | 0.00 | 0.00 | 42 | 1015.3 | |
| 20260830213629 | 76 | 0.0 | 0.0 | 0.00 | 0.00 | 0.00 | 44 | 1015.3 | |
| 20260830212629 | 76 | 0.0 | 0.0 | 0.00 | 0.00 | 0.00 | 44 | 1015.2 | |
| 20260830211629 | 76 | 0.0 | 0.0 | 0.00 | 0.00 | 0.00 | 46 | 1015.2 | |
| 20260830210629 | 77 | 0.0 | 0.0 | 0.00 | 0.00 | 0.00 | 43 | 1015.0 | |
| 20260830205629 | 77 | 0.0 | 0.0 | 0.00 | 0.00 | 0.00 | 43 | 1015.0 | |
| 20260830204629 | 78 | 0.0 | 0.0 | 0.00 | 0.00 | 0.00 | 41 | 1014.8 | |
| 20260830203629 | 77 | 0.0 | 0.0 | 0.00 | 0.00 | 0.00 | 43 | 1015.0 | |
| 20260830202629 | 79 | 0.0 | 0.0 | 0.00 | 0.00 | 0.00 | 42 | 1014.8 | |
| 20260830201629 | 78 | 0.0 | 0.0 | 0.00 | 0.00 | 0.00 | 43 | 1014.8 | |
| 20260830200629 | 80 | 0.0 | 0.0 | 0.00 | 0.00 | 0.00 | 41 | 1014.5 | |
| 20260830195629 | 79 | 0.0 | 0.0 | 0.00 | 0.00 | 0.00 | 42 | 1014.5 | |
| 20260830194629 | 80 | 0.0 | 0.0 | 0.00 | 0.00 | 0.00 | 43 | 1014.2 | |
| 20260830193629 | 79 | 0.0 | 0.0 | 0.00 | 0.00 | 0.00 | 44 | 1014.2 | |
| 20260830192624 | 80 | 0.0 | 0.0 | 0.00 | 0.00 | 0.00 | 41 | 1013.9 | |
| 20260830191629 | 81 | 0.0 | 0.0 | 0.00 | 0.00 | 0.00 | 43 | 1013.8 | |
| 20260830190629 | 82 | 0.0 | 0.0 | 0.00 | 0.00 | 0.00 | 42 | 1013.7 | |
| 20260830185629 | 84 | 0.0 | 0.0 | 0.00 | 0.00 | 0.00 | 37 | 1013.3 | |
| 20260830184629 | 85 | 0.0 | 0.0 | 0.00 | 0.00 | 0.00 | 34 | 1013.1 | |
| 20260830183629 | 86 | 0.0 | 0.0 | 0.00 | 0.00 | 0.00 | 33 | 1013.0 | |
| 20260830182629 | 88 | 0.0 | 0.0 | 0.00 | 0.00 | 0.00 | 31 | 1012.8 | |
| 20260830181629 | 90 | 0.0 | 0.0 | 0.00 | 0.00 | 0.00 | 29 | 1012.5 | |
| 20260830180629 | 90 | 0.0 | 0.0 | 0.00 | 0.00 | 0.00 | 31 | 1012.5 | |
| 20260830175629 | 92 | 0.0 | 0.0 | 0.00 | 0.00 | 0.00 | 29 | 1012.4 | |
| 20260830174629 | 94 | 0.0 | 0.0 | 0.00 | 0.00 | 0.00 | 26 | 1012.2 | |
| 20260830173629 | 96 | 0.0 | 0.0 | 0.00 | 0.00 | 0.00 | 24 | 1011.9 | |
| 20260830172629 | 97 | 0.0 | 0.0 | 0.00 | 0.00 | 0.00 | 24 | 1011.8 | |
| 20260830171629 | 96 | 0.0 | 0.0 | 0.00 | 0.00 | 0.00 | 24 | 1011.9 | |
| 20260830170629 | 97 | 0.0 | 0.0 | 0.00 | 0.00 | 0.00 | 25 | 1011.8 | |
| 20260830165629 | 97 | 0.0 | 0.0 | 0.00 | 0.00 | 0.00 | 25 | 1011.9 | |
| 20260830164629 | 96 | 0.0 | 0.0 | 0.00 | 0.00 | 0.00 | 25 | 1011.9 | |
| 20260830163629 | 96 | 0.0 | 0.0 | 0.00 | 0.00 | 0.00 | 24 | 1011.9 | |
| 20260830162629 | 96 | 0.0 | 0.0 | 0.00 | 0.00 | 0.00 | 24 | 1012.0 | |
| 20260830161629 | 97 | 0.0 | 0.0 | 0.00 | 0.00 | 0.00 | 24 | 1011.9 | |
| 20260830160629 | 97 | 0.0 | 0.0 | 0.00 | 0.00 | 0.00 | 24 | 1012.0 | |
| 20260830155629 | 98 | 0.0 | 0.0 | 0.00 | 0.00 | 0.00 | 23 | 1011.9 | |
| 20260830154629 | 98 | 0.0 | 0.0 | 0.00 | 0.00 | 0.00 | 23 | 1011.9 | |
| 20260830153629 | 98 | 0.0 | 0.0 | 0.00 | 0.00 | 0.00 | 24 | 1012.0 | |
| 20260830152629 | 97 | 0.0 | 0.0 | 0.00 | 0.00 | 0.00 | 23 | 1012.2 | |
| 20260830151629 | 99 | 0.0 | 0.0 | 0.00 | 0.00 | 0.00 | 23 | 1012.1 | |
| 20260830150629 | 100 | 0.0 | 0.0 | 0.00 | 0.00 | 0.00 | 24 | 1012.1 | |
| 20260830145629 | 97 | 0.0 | 0.0 | 0.00 | 0.00 | 0.00 | 23 | 1012.4 | |
| 20260830144629 | 99 | 0.0 | 0.0 | 0.00 | 0.00 | 0.00 | 24 | 1012.5 | |
| 20260830142629 | 99 | 0.0 | 0.0 | 0.00 | 0.00 | 0.00 | 24 | 1012.6 | |
| 20260830141629 | 99 | 0.0 | 0.0 | 0.00 | 0.00 | 0.00 | 24 | 1012.6 | |
| 20260830140629 | 99 | 0.0 | 0.0 | 0.00 | 0.00 | 0.00 | 24 | 1012.7 | |
| 20260830135629 | 99 | 0.0 | 0.0 | 0.00 | 0.00 | 0.00 | 24 | 1012.8 | |
| 20260830134629 | 98 | 0.0 | 0.0 | 0.00 | 0.00 | 0.00 | 24 | 1013.1 | |
| 20260830133629 | 98 | 0.0 | 0.0 | 0.00 | 0.00 | 0.00 | 24 | 1013.1 | |
| 20260830132629 | 99 | 0.0 | 0.0 | 0.00 | 0.00 | 0.00 | 25 | 1013.1 | |
| 20260830131629 | 100 | 0.0 | 0.0 | 0.00 | 0.00 | 0.00 | 24 | 1013.2 | |
| 20260830130629 | 99 | 0.0 | 0.0 | 0.00 | 0.00 | 0.00 | 26 | 1013.4 | |
| 20260830125629 | 99 | 0.0 | 0.0 | 0.00 | 0.00 | 0.00 | 25 | 1013.6 | |
| 20260830124629 | 98 | 0.0 | 0.0 | 0.00 | 0.00 | 0.00 | 26 | 1013.9 | |
| 20260830123629 | 98 | 0.0 | 0.0 | 0.00 | 0.00 | 0.00 | 26 | 1013.9 | |
| 20260830122629 | 97 | 0.0 | 0.0 | 0.00 | 0.00 | 0.00 | 26 | 1014.1 | |
| 20260830121629 | 96 | 0.0 | 0.0 | 0.00 | 0.00 | 0.00 | 27 | 1014.3 | |
| 20260830120629 | 94 | 0.0 | 0.0 | 0.00 | 0.00 | 0.00 | 29 | 1014.5 | |
| 20260830115629 | 94 | 0.0 | 0.0 | 0.00 | 0.00 | 0.00 | 29 | 1014.6 | |
| 20260830114629 | 94 | 0.0 | 0.0 | 0.00 | 0.00 | 0.00 | 28 | 1014.7 | |
| 20260830113629 | 95 | 0.0 | 0.0 | 0.00 | 0.00 | 0.00 | 28 | 1014.7 | |
| 20260830112629 | 92 | 0.0 | 0.0 | 0.00 | 0.00 | 0.00 | 29 | 1015.1 | |
| 20260830111629 | 92 | 0.0 | 0.0 | 0.00 | 0.00 | 0.00 | 29 | 1015.2 | |
| 20260830110629 | 91 | 0.0 | 0.0 | 0.00 | 0.00 | 0.00 | 28 | 1015.2 | |
| 20260830105629 | 89 | 0.0 | 0.0 | 0.00 | 0.00 | 0.00 | 29 | 1015.6 | |
| 20260830104629 | 90 | 0.0 | 0.0 | 0.00 | 0.00 | 0.00 | 30 | 1015.5 | |
| 20260830103629 | 88 | 0.0 | 0.0 | 0.00 | 0.00 | 0.00 | 30 | 1015.8 | |
| 20260830102629 | 86 | 0.0 | 0.0 | 0.00 | 0.00 | 0.00 | 31 | 1016.0 | |
| 20260830101629 | 86 | 0.0 | 0.0 | 0.00 | 0.00 | 0.00 | 32 | 1016.0 | |
| 20260830100629 | 85 | 0.0 | 0.0 | 0.00 | 0.00 | 0.00 | 33 | 1016.1 | |
| 20260830095629 | 84 | 0.0 | 0.0 | 0.00 | 0.00 | 0.00 | 34 | 1016.2 | |
| 20260830094629 | 83 | 0.0 | 0.0 | 0.00 | 0.00 | 0.00 | 34 | 1016.1 | |
| 20260830093629 | 83 | 0.0 | 0.0 | 0.00 | 0.00 | 0.00 | 34 | 1016.3 | |
| 20260830092629 | 82 | 0.0 | 0.0 | 0.00 | 0.00 | 0.00 | 34 | 1016.3 | |
| 20260830091629 | 82 | 0.0 | 0.0 | 0.00 | 0.00 | 0.00 | 38 | 1016.3 | |
| 20260830090629 | 81 | 0.0 | 0.0 | 0.00 | 0.00 | 0.00 | 34 | 1016.4 | |
| 20260830085629 | 81 | 0.0 | 0.0 | 0.00 | 0.00 | 0.00 | 37 | 1016.5 | |
| 20260830084629 | 80 | 0.0 | 0.0 | 0.00 | 0.00 | 0.00 | 38 | 1016.5 | |
| 20260830083629 | 79 | 0.0 | 0.0 | 0.00 | 0.00 | 0.00 | 38 | 1016.7 | |
| 20260830082629 | 78 | 0.0 | 0.0 | 0.00 | 0.00 | 0.00 | 41 | 1016.7 | |
| 20260830081629 | 77 | 0.0 | 0.0 | 0.00 | 0.00 | 0.00 | 47 | 1016.9 | |
| 20260830080629 | 75 | 0.0 | 0.0 | 0.00 | 0.00 | 0.00 | 49 | 1017.1 | |
| 20260830075629 | 74 | 0.0 | 0.0 | 0.00 | 0.00 | 0.00 | 49 | 1017.0 | |
| 20260830074629 | 73 | 0.0 | 0.0 | 0.00 | 0.00 | 0.00 | 53 | 1017.3 | |
| 20260830073629 | 71 | 0.0 | 0.0 | 0.00 | 0.00 | 0.00 | 58 | 1017.5 | |
| 20260830072629 | 69 | 0.0 | 0.0 | 0.00 | 0.00 | 0.00 | 62 | 1017.5 | |
| 20260830071629 | 68 | 0.0 | 0.0 | 0.00 | 0.00 | 0.00 | 57 | 1017.6 | |
| 20260830070629 | 67 | 0.0 | 0.0 | 0.00 | 0.00 | 0.00 | 59 | 1017.7 | |
| 20260830065629 | 66 | 0.0 | 0.0 | 0.00 | 0.00 | 0.00 | 57 | 1017.8 | |
| 20260830064629 | 65 | 0.0 | 0.0 | 0.00 | 0.00 | 0.00 | 60 | 1017.8 | |
| 20260830063629 | 65 | 0.0 | 0.0 | 0.00 | 0.00 | 0.00 | 60 | 1017.8 | |
| 20260830062629 | 64 | 0.0 | 0.0 | 0.00 | 0.00 | 0.00 | 59 | 1017.9 | |
| 20260830061629 | 64 | 0.0 | 0.0 | 0.00 | 0.00 | 0.00 | 58 | 1017.8 | |
| 20260830060629 | 64 | 0.0 | 0.0 | 0.00 | 0.00 | 0.00 | 58 | 1017.8 | |
| 20260830055629 | 64 | 0.0 | 0.0 | 0.00 | 0.00 | 0.00 | 59 | 1017.7 | |
| 20260830054629 | 64 | 0.0 | 0.0 | 0.00 | 0.00 | 0.00 | 59 | 1017.7 | |
| 20260830053629 | 64 | 0.0 | 0.0 | 0.00 | 0.00 | 0.00 | 59 | 1017.5 | |
| 20260830052629 | 64 | 0.0 | 0.0 | 0.00 | 0.00 | 0.00 | 59 | 1017.5 | |
| 20260830051629 | 64 | 0.0 | 0.0 | 0.00 | 0.00 | 0.00 | 58 | 1017.4 | |
| 20260830050629 | 64 | 0.0 | 0.0 | 0.00 | 0.00 | 0.00 | 57 | 1017.3 | |
| 20260830045629 | 65 | 0.0 | 0.0 | 0.00 | 0.00 | 0.00 | 56 | 1017.3 | |
| 20260830044629 | 65 | 0.0 | 0.0 | 0.00 | 0.00 | 0.00 | 53 | 1017.2 | |
| 20260830043629 | 65 | 0.0 | 0.0 | 0.00 | 0.00 | 0.00 | 54 | 1017.2 | |
| 20260830042629 | 66 | 0.0 | 0.0 | 0.00 | 0.00 | 0.00 | 53 | 1017.1 | |
| 20260830041629 | 66 | 0.0 | 0.0 | 0.00 | 0.00 | 0.00 | 52 | 1016.9 | |
| 20260830040629 | 66 | 0.0 | 0.0 | 0.00 | 0.00 | 0.00 | 53 | 1017.0 | |
| 20260830035629 | 67 | 0.0 | 0.0 | 0.00 | 0.00 | 0.00 | 51 | 1016.9 | |
| 20260830034629 | 67 | 0.0 | 0.0 | 0.00 | 0.00 | 0.00 | 51 | 1016.8 | |
| 20260830033629 | 67 | 0.0 | 0.0 | 0.00 | 0.00 | 0.00 | 52 | 1016.8 | |
| 20260830032629 | 68 | 0.0 | 0.0 | 0.00 | 0.00 | 0.00 | 50 | 1016.7 | |
| 20260830031629 | 68 | 0.0 | 0.0 | 0.00 | 0.00 | 0.00 | 48 | 1016.8 | |
| 20260830030629 | 68 | 0.0 | 0.0 | 0.00 | 0.00 | 0.00 | 48 | 1016.6 | |
| 20260830025629 | 67 | 0.0 | 0.0 | 0.00 | 0.00 | 0.00 | 51 | 1016.7 | |
| 20260830024629 | 69 | 0.0 | 0.0 | 0.00 | 0.00 | 0.00 | 48 | 1016.6 | |
| 20260830023629 | 69 | 0.0 | 0.0 | 0.00 | 0.00 | 0.00 | 45 | 1016.5 | |
| 20260830022629 | 69 | 0.0 | 0.0 | 0.00 | 0.00 | 0.00 | 45 | 1016.4 |